AAL1194 KONT-KPHX

Flight info

Callsign AAL1194
Flight time 0h 51m
Altitude 27000
Route RAJEE4 MTBAL CNERY BLH HYDRR1
Aircraft A321/M-SDE3FGHIRWY/LB1

Departure

Time 2026-05-06 02:11
Airport Ontario International Airport (KONT)

Arrival

Time 2026-05-06 03:03
Airport Phoenix Sky Harbor International Airport (KPHX)
Time Latitude Longitude Altitude Speed Heading
2026-05-06 01:51 34.05971 -117.58690 945 ft 0 kts 360°
2026-05-06 02:03 34.05955 -117.58690 944 ft 4 kts 360°
2026-05-06 02:04 34.05929 -117.58692 944 ft 4 kts 16°
2026-05-06 02:04 34.05906 -117.58706 944 ft 4 kts 52°
2026-05-06 02:04 34.05898 -117.58728 945 ft 1 kts 90°
2026-05-06 02:04 34.05898 -117.58733 945 ft 0 kts 90°
2026-05-06 02:08 34.05898 -117.58729 945 ft 2 kts 90°
2026-05-06 02:08 34.05898 -117.58688 945 ft 8 kts 90°
2026-05-06 02:08 34.05898 -117.58608 945 ft 10 kts 90°
2026-05-06 02:08 34.05898 -117.58516 945 ft 11 kts 89°
2026-05-06 02:09 34.05898 -117.58415 945 ft 12 kts 90°
2026-05-06 02:09 34.05898 -117.58308 945 ft 11 kts 92°
2026-05-06 02:09 34.05853 -117.58273 945 ft 8 kts 178°
2026-05-06 02:09 34.05794 -117.58272 945 ft 9 kts 179°
2026-05-06 02:10 34.05726 -117.58279 945 ft 12 kts 201°
2026-05-06 02:10 34.05690 -117.58398 947 ft 26 kts 268°
2026-05-06 02:10 34.05688 -117.58914 947 ft 95 kts 270°
2026-05-06 02:10 34.05688 -117.59952 946 ft 150 kts 270°
2026-05-06 02:11 34.05688 -117.61347 1250 ft 168 kts 266°
2026-05-06 02:11 34.05570 -117.62724 1951 ft 166 kts 247°
2026-05-06 02:11 34.04706 -117.63610 2593 ft 173 kts 196°
2026-05-06 02:11 34.03475 -117.63371 2901 ft 201 kts 155°
2026-05-06 02:12 34.02241 -117.62375 3166 ft 223 kts 147°
2026-05-06 02:12 34.00937 -117.61179 3324 ft 246 kts 145°
2026-05-06 02:12 33.99510 -117.59843 3581 ft 268 kts 144°
2026-05-06 02:12 33.98029 -117.58477 4376 ft 270 kts 145°
2026-05-06 02:13 33.96529 -117.57123 5062 ft 274 kts 144°
2026-05-06 02:13 33.94977 -117.55752 5753 ft 279 kts 144°
2026-05-06 02:13 33.93382 -117.54368 6419 ft 285 kts 144°
2026-05-06 02:13 33.91757 -117.52948 7091 ft 288 kts 143°
2026-05-06 02:14 33.90139 -117.51540 7742 ft 292 kts 142°
2026-05-06 02:14 33.88467 -117.50123 8425 ft 295 kts 144°
2026-05-06 02:14 33.86768 -117.48711 9141 ft 298 kts 143°
2026-05-06 02:14 33.85063 -117.47294 9923 ft 297 kts 142°
2026-05-06 02:15 33.83349 -117.45870 10572 ft 301 kts 142°
2026-05-06 02:15 33.81568 -117.44388 10749 ft 321 kts 142°
2026-05-06 02:15 33.79709 -117.42835 11011 ft 338 kts 143°
2026-05-06 02:15 33.77725 -117.41172 11215 ft 355 kts 143°
2026-05-06 02:16 33.75655 -117.39433 11580 ft 366 kts 143°
2026-05-06 02:16 33.73687 -117.37463 12109 ft 369 kts 132°
2026-05-06 02:16 33.72134 -117.35052 12687 ft 369 kts 119°
2026-05-06 02:16 33.71034 -117.32260 13239 ft 371 kts 106°
2026-05-06 02:17 33.70451 -117.29222 13756 ft 375 kts 95°
2026-05-06 02:17 33.70186 -117.26092 14293 ft 378 kts 95°
2026-05-06 02:17 33.69905 -117.22982 14855 ft 380 kts 94°
2026-05-06 02:17 33.69601 -117.19813 15435 ft 382 kts 94°
2026-05-06 02:18 33.69291 -117.16639 16074 ft 384 kts 94°
2026-05-06 02:18 33.68978 -117.13434 16613 ft 388 kts 94°
2026-05-06 02:18 33.68663 -117.10195 17168 ft 390 kts 94°
2026-05-06 02:18 33.68347 -117.06942 17739 ft 393 kts 95°
2026-05-06 02:19 33.68029 -117.03674 18290 ft 396 kts 94°
2026-05-06 02:19 33.67716 -117.00423 18769 ft 398 kts 95°
2026-05-06 02:19 33.67396 -116.97102 19267 ft 401 kts 95°
2026-05-06 02:19 33.67072 -116.93764 19777 ft 403 kts 95°
2026-05-06 02:20 33.66412 -116.87037 20749 ft 408 kts 94°
2026-05-06 02:20 33.66077 -116.83631 21130 ft 413 kts 95°
2026-05-06 02:20 33.65742 -116.80223 21511 ft 417 kts 95°
2026-05-06 02:21 33.65398 -116.76748 21904 ft 420 kts 94°
2026-05-06 02:21 33.65054 -116.73253 22344 ft 422 kts 95°
2026-05-06 02:21 33.64707 -116.69732 22769 ft 425 kts 95°
2026-05-06 02:21 33.64358 -116.66182 23159 ft 429 kts 96°
2026-05-06 02:22 33.64004 -116.62621 23573 ft 430 kts 96°
2026-05-06 02:22 33.63651 -116.59094 23891 ft 433 kts 94°
2026-05-06 02:22 33.63291 -116.55485 24194 ft 437 kts 95°
2026-05-06 02:22 33.62932 -116.51844 24529 ft 439 kts 95°
2026-05-06 02:23 33.62572 -116.48196 24849 ft 441 kts 95°
2026-05-06 02:23 33.62204 -116.44511 25090 ft 446 kts 95°
2026-05-06 02:23 33.61828 -116.40801 25366 ft 449 kts 96°
2026-05-06 02:23 33.61451 -116.37110 25672 ft 451 kts 96°
2026-05-06 02:24 33.61103 -116.33353 25954 ft 454 kts 92°
2026-05-06 02:24 33.60990 -116.29552 26212 ft 457 kts 91°
2026-05-06 02:24 33.60895 -116.25724 26546 ft 459 kts 91°
2026-05-06 02:24 33.60800 -116.21875 26802 ft 461 kts 91°
2026-05-06 02:25 33.60705 -116.18039 26873 ft 456 kts 91°
2026-05-06 02:25 33.60610 -116.14314 26888 ft 451 kts 91°
2026-05-06 02:25 33.60510 -116.10545 26888 ft 450 kts 91°
2026-05-06 02:25 33.60408 -116.06773 26889 ft 454 kts 91°
2026-05-06 02:26 33.60321 -116.02963 26890 ft 458 kts 90°
2026-05-06 02:26 33.60342 -115.99133 26888 ft 459 kts 88°
2026-05-06 02:26 33.60463 -115.95303 26888 ft 458 kts 86°
2026-05-06 02:26 33.60637 -115.91492 26887 ft 458 kts 86°
2026-05-06 02:27 33.60820 -115.87731 26889 ft 457 kts 86°
2026-05-06 02:27 33.60992 -115.83874 26895 ft 466 kts 87°
2026-05-06 02:27 33.61141 -115.79939 26894 ft 476 kts 87°
2026-05-06 02:27 33.61269 -115.75920 26895 ft 485 kts 88°
2026-05-06 02:28 33.61386 -115.71852 26896 ft 489 kts 88°
2026-05-06 02:28 33.61499 -115.67804 26895 ft 490 kts 88°
2026-05-06 02:28 33.61614 -115.63690 26896 ft 491 kts 88°
2026-05-06 02:28 33.61730 -115.59597 26892 ft 492 kts 88°
2026-05-06 02:29 33.61803 -115.55540 26892 ft 492 kts 90°
2026-05-06 02:29 33.61773 -115.51425 26892 ft 492 kts 91°
2026-05-06 02:29 33.61663 -115.47310 26893 ft 493 kts 92°
2026-05-06 02:29 33.61510 -115.43189 26894 ft 493 kts 92°
2026-05-06 02:30 33.61349 -115.39078 26903 ft 493 kts 92°
2026-05-06 02:30 33.61202 -115.34978 26901 ft 493 kts 92°
2026-05-06 02:30 33.61078 -115.30924 26908 ft 492 kts 92°
2026-05-06 02:30 33.60974 -115.26814 26904 ft 492 kts 92°
2026-05-06 02:31 33.60881 -115.22715 26898 ft 492 kts 91°
2026-05-06 02:31 33.60788 -115.18604 26896 ft 492 kts 92°
2026-05-06 02:31 33.60692 -115.14494 26894 ft 492 kts 92°
2026-05-06 02:31 33.60590 -115.10381 26893 ft 491 kts 92°
2026-05-06 02:32 33.60481 -115.06332 26893 ft 491 kts 92°
2026-05-06 02:32 33.60365 -115.02230 26900 ft 491 kts 92°
2026-05-06 02:32 33.60247 -114.98126 26877 ft 492 kts 93°
2026-05-06 02:32 33.60128 -114.94006 26874 ft 493 kts 93°
2026-05-06 02:33 33.60009 -114.89928 26875 ft 495 kts 93°
2026-05-06 02:33 33.59930 -114.87135 26879 ft 496 kts 93°
2026-05-06 02:33 33.59620 -114.77483 26884 ft 497 kts 96°
2026-05-06 02:34 33.59090 -114.73390 26886 ft 496 kts 104°
2026-05-06 02:34 33.58311 -114.69409 26890 ft 496 kts 105°
2026-05-06 02:34 33.57520 -114.65372 26895 ft 497 kts 105°
2026-05-06 02:34 33.56732 -114.61324 26892 ft 497 kts 104°
2026-05-06 02:35 33.55947 -114.57282 26889 ft 497 kts 104°
2026-05-06 02:35 33.55159 -114.53234 26891 ft 497 kts 104°
2026-05-06 02:35 33.54386 -114.49262 26844 ft 493 kts 105°
2026-05-06 02:35 33.53604 -114.45265 26143 ft 491 kts 104°
2026-05-06 02:36 33.52826 -114.41293 25409 ft 489 kts 104°
2026-05-06 02:36 33.52048 -114.37339 25034 ft 486 kts 104°
2026-05-06 02:36 33.51270 -114.33392 24862 ft 485 kts 104°
2026-05-06 02:36 33.50494 -114.29458 24903 ft 485 kts 104°
2026-05-06 02:37 33.49716 -114.25525 24898 ft 485 kts 104°
2026-05-06 02:37 33.48938 -114.21589 24899 ft 485 kts 104°
2026-05-06 02:37 33.48159 -114.17658 24905 ft 485 kts 104°
2026-05-06 02:37 33.47375 -114.13719 24911 ft 486 kts 104°
2026-05-06 02:38 33.46592 -114.09790 24904 ft 485 kts 104°
2026-05-06 02:38 33.45808 -114.05858 24899 ft 487 kts 104°
2026-05-06 02:38 33.45021 -114.01912 24585 ft 486 kts 104°
2026-05-06 02:38 33.44240 -113.98033 24416 ft 484 kts 104°
2026-05-06 02:39 33.43450 -113.94122 24235 ft 483 kts 104°
2026-05-06 02:39 33.42660 -113.90205 24054 ft 483 kts 104°
2026-05-06 02:39 33.41871 -113.86285 23871 ft 483 kts 104°
2026-05-06 02:39 33.41082 -113.82367 23690 ft 483 kts 103°
2026-05-06 02:40 33.40296 -113.78458 23495 ft 482 kts 103°
2026-05-06 02:40 33.39512 -113.74558 23302 ft 481 kts 103°
2026-05-06 02:40 33.38736 -113.70716 23099 ft 483 kts 104°
2026-05-06 02:40 33.37941 -113.66793 22927 ft 486 kts 104°
2026-05-06 02:41 33.37143 -113.62859 22736 ft 485 kts 104°
2026-05-06 02:41 33.36615 -113.60257 22606 ft 484 kts 104°
2026-05-06 02:41 33.35561 -113.55063 22338 ft 483 kts 104°
2026-05-06 02:41 33.34764 -113.51160 22172 ft 481 kts 104°
2026-05-06 02:42 33.33966 -113.47265 21973 ft 480 kts 104°
2026-05-06 02:42 33.33444 -113.44689 21813 ft 480 kts 104°
2026-05-06 02:42 33.32488 -113.39545 21124 ft 475 kts 102°
2026-05-06 02:42 33.31833 -113.35678 20689 ft 472 kts 102°
2026-05-06 02:43 33.31408 -113.33079 20390 ft 470 kts 102°
2026-05-06 02:43 33.30787 -113.29261 19965 ft 464 kts 102°
2026-05-06 02:43 33.30181 -113.25584 19802 ft 446 kts 102°
2026-05-06 02:43 33.29582 -113.22013 19674 ft 429 kts 102°
2026-05-06 02:44 33.29046 -113.18569 19550 ft 415 kts 101°
2026-05-06 02:44 33.28563 -113.15208 19426 ft 402 kts 100°
2026-05-06 02:44 33.28118 -113.11993 19304 ft 389 kts 100°
2026-05-06 02:44 33.27685 -113.08854 19153 ft 377 kts 100°
2026-05-06 02:45 33.27461 -113.05760 18888 ft 370 kts 90°
2026-05-06 02:45 33.27545 -113.02692 18639 ft 369 kts 88°
2026-05-06 02:45 33.27629 -112.99639 18378 ft 366 kts 89°
2026-05-06 02:45 33.27705 -112.96607 18104 ft 363 kts 89°
2026-05-06 02:46 33.27777 -112.93616 17835 ft 362 kts 89°
2026-05-06 02:46 33.27848 -112.90606 17577 ft 361 kts 89°
2026-05-06 02:46 33.27918 -112.87613 17318 ft 359 kts 89°
2026-05-06 02:46 33.27987 -112.84679 17089 ft 352 kts 89°
2026-05-06 02:47 33.28067 -112.81788 16878 ft 343 kts 87°
2026-05-06 02:47 33.28245 -112.78960 16593 ft 337 kts 85°
2026-05-06 02:47 33.28502 -112.76173 16321 ft 337 kts 84°
2026-05-06 02:47 33.28795 -112.73397 15999 ft 335 kts 83°
2026-05-06 02:48 33.29091 -112.70647 15677 ft 332 kts 83°
2026-05-06 02:48 33.29378 -112.67911 15355 ft 331 kts 84°
2026-05-06 02:48 33.29649 -112.65212 15040 ft 329 kts 84°
2026-05-06 02:48 33.29909 -112.62504 14720 ft 328 kts 84°
2026-05-06 02:49 33.30163 -112.59801 14400 ft 326 kts 84°
2026-05-06 02:49 33.30412 -112.57105 14083 ft 324 kts 85°
2026-05-06 02:49 33.30657 -112.54435 13766 ft 323 kts 85°
2026-05-06 02:49 33.30901 -112.51757 13425 ft 322 kts 84°
2026-05-06 02:50 33.31142 -112.49105 13101 ft 319 kts 84°
2026-05-06 02:50 33.31382 -112.46470 12795 ft 318 kts 84°
2026-05-06 02:50 33.31618 -112.43877 12496 ft 316 kts 84°
2026-05-06 02:50 33.31855 -112.41270 12188 ft 314 kts 84°
2026-05-06 02:51 33.32091 -112.38676 11887 ft 314 kts 84°
2026-05-06 02:51 33.32327 -112.36092 11583 ft 311 kts 83°
2026-05-06 02:51 33.32562 -112.33534 11280 ft 308 kts 83°
2026-05-06 02:51 33.32796 -112.30983 10984 ft 308 kts 83°
2026-05-06 02:52 33.33027 -112.28451 10683 ft 304 kts 83°
2026-05-06 02:52 33.33258 -112.25943 10389 ft 301 kts 82°
2026-05-06 02:52 33.33485 -112.23456 10093 ft 300 kts 82°
2026-05-06 02:52 33.33705 -112.21024 9802 ft 296 kts 82°
2026-05-06 02:53 33.33926 -112.18575 9460 ft 295 kts 82°
2026-05-06 02:53 33.34142 -112.16169 9348 ft 285 kts 82°
2026-05-06 02:53 33.34350 -112.13856 9234 ft 274 kts 82°
2026-05-06 02:53 33.34551 -112.11621 9025 ft 268 kts 84°
2026-05-06 02:54 33.34744 -112.09408 8511 ft 266 kts 87°
2026-05-06 02:54 33.34733 -112.07203 7890 ft 264 kts 91°
2026-05-06 02:54 33.34700 -112.05015 7297 ft 263 kts 91°
2026-05-06 02:54 33.34674 -112.02862 6715 ft 262 kts 91°
2026-05-06 02:55 33.34649 -112.00690 6154 ft 260 kts 91°
2026-05-06 02:55 33.34622 -111.98535 5544 ft 258 kts 90°
2026-05-06 02:55 33.34594 -111.96387 4928 ft 257 kts 91°
2026-05-06 02:55 33.34567 -111.94248 4316 ft 256 kts 91°
2026-05-06 02:56 33.34557 -111.92150 4048 ft 247 kts 90°
2026-05-06 02:56 33.34594 -111.90122 4019 ft 242 kts 89°
2026-05-06 02:56 33.34648 -111.88114 4020 ft 240 kts 89°
2026-05-06 02:56 33.34703 -111.86132 4025 ft 241 kts 88°
2026-05-06 02:57 33.34755 -111.84134 4026 ft 240 kts 89°
2026-05-06 02:57 33.35051 -111.82185 4020 ft 239 kts 63°
2026-05-06 02:57 33.36103 -111.80686 4027 ft 235 kts 29°
2026-05-06 02:57 33.37603 -111.80053 3909 ft 226 kts
2026-05-06 02:58 33.39165 -111.79866 3531 ft 225 kts
2026-05-06 02:58 33.40727 -111.79753 3203 ft 223 kts
2026-05-06 02:58 33.42201 -111.79708 3089 ft 204 kts 350°
2026-05-06 02:58 33.43413 -111.80374 2998 ft 188 kts 312°
2026-05-06 02:59 33.44011 -111.81701 2999 ft 181 kts 278°
2026-05-06 02:59 33.44054 -111.83204 3000 ft 180 kts 269°
2026-05-06 02:59 33.44054 -111.84698 2996 ft 179 kts 270°
2026-05-06 02:59 33.44056 -111.86157 2995 ft 177 kts 269°
2026-05-06 03:00 33.44059 -111.87661 2947 ft 178 kts 268°
2026-05-06 03:00 33.44063 -111.89069 2814 ft 164 kts 270°
2026-05-06 03:00 33.44067 -111.90374 2654 ft 153 kts 269°
2026-05-06 03:00 33.44067 -111.91624 2398 ft 147 kts 269°
2026-05-06 03:01 33.44073 -111.92835 2222 ft 144 kts 269°
2026-05-06 03:01 33.44075 -111.94036 2031 ft 144 kts 269°
2026-05-06 03:01 33.44080 -111.95224 1870 ft 145 kts 269°
2026-05-06 03:01 33.44079 -111.96433 1707 ft 145 kts 270°
2026-05-06 03:02 33.44078 -111.97638 1464 ft 144 kts 269°
2026-05-06 03:02 33.44080 -111.98831 1276 ft 144 kts 270°
2026-05-06 03:02 33.44084 -111.99990 1132 ft 129 kts 270°
2026-05-06 03:02 33.44085 -112.00893 1129 ft 70 kts 270°
2026-05-06 03:03 33.44057 -112.01090 1134 ft 2 kts 192°
2026-05-06 03:03 33.44010 -112.01086 1114 ft 10 kts 169°
2026-05-06 03:03 33.43975 -112.01003 1124 ft 13 kts 90°
2026-05-06 03:03 33.43974 -112.00887 1120 ft 14 kts 90°
2026-05-06 03:04 33.43974 -112.00763 1123 ft 15 kts 90°
2026-05-06 03:04 33.43974 -112.00634 1121 ft 16 kts 90°
2026-05-06 03:04 33.43974 -112.00496 1124 ft 17 kts 90°
2026-05-06 03:04 33.43974 -112.00351 1126 ft 18 kts 90°
2026-05-06 03:05 33.43974 -112.00201 1127 ft 18 kts 90°
2026-05-06 03:05 33.43973 -112.00050 1124 ft 19 kts 90°
2026-05-06 03:05 33.43973 -111.99897 1127 ft 14 kts 90°
2026-05-06 03:05 33.43929 -111.99831 1119 ft 12 kts 167°
2026-05-06 03:06 33.43835 -111.99827 1120 ft 14 kts 180°
2026-05-06 03:06 33.43763 -111.99826 1120 ft 10 kts 179°
2026-05-06 03:06 33.43720 -111.99795 1123 ft 4 kts 105°
2026-05-06 03:06 33.43715 -111.99760 1124 ft 3 kts 91°
2026-05-06 03:07 33.43715 -111.99738 1124 ft 1 kts 88°
2026-05-06 03:07 33.43715 -111.99736 1124 ft 0 kts 88°